Location: Six Mile Lake
(44.9000°N, 79.7170°W)
Time: 00:28:00
(UTC-04:00)

EO-88 - Visible Passes

Search period start: 26 June 2022 00:00
Search period end: 06 July 2022 00:00
Orbit: 458 x 464 km, 97.3° (Epoch: 25 June)

Date Brightness Start Highest point End Pass type
(mag) Time Alt. Az. Time Alt. Az. Time Alt. Az.
26 Jun ? 22:09:33 12° SE 22:12:18 33° ENE 22:15:28 10° N visible
26 Jun ? 23:43:26 11° SW 23:45:24 16° W 23:47:36 10° NW visible
27 Jun ? 23:11:34 18° SSW 23:13:40 37° W 23:16:56 10° NNW visible
28 Jun ? 22:39:42 19° SSE 22:42:04 82° ENE 22:45:34 10° N visible
29 Jun ? 22:07:48 12° SE 22:10:34 31° ENE 22:13:41 10° N visible
29 Jun ? 23:41:41 11° SW 23:43:38 16° W 23:45:55 10° NW visible
30 Jun ? 23:09:45 19° SSW 23:11:51 39° W 23:15:08 10° NNW visible
01 Jul ? 22:37:49 19° SSE 22:40:10 77° ENE 22:43:39 10° N visible
02 Jul ? 22:05:51 12° SE 22:08:37 29° ENE 22:11:40 10° N visible
02 Jul ? 23:39:43 12° SW 23:41:39 17° W 23:44:01 10° NW visible
03 Jul ? 23:07:43 20° SSW 23:09:47 41° W 23:13:06 10° NNW visible
04 Jul ? 22:35:43 19° SSE 22:38:03 72° ENE 22:41:31 10° N visible
05 Jul ? 22:03:41 11° SE 22:06:25 28° ENE 22:09:26 10° N visible
05 Jul ? 23:37:33 13° SW 23:39:26 18° W 23:41:54 10° NW visible
